Miscellaneous Local Product
Issued by NWS Hastings, NE

Home | Current Version | Previous Version | Graphics & Text | Print | Product List | Glossary On
Versions: 1 2 3 4 5 6 7 8 9 10 11 12 13 14 15 16 17 18 19 20 21 22 23 24 25 26 27 28 29 30 31 32 33 34 35 36 37 38 39 40 41 42 43 44 45 46 47 48 49 50
788
AXUS43 KGID 181402
MISGRI

GID CWA HOURLY WEATHER ROUNDUP
NATIONAL WEATHER SERVICE HASTINGS NE
900 AM CDT MON SEP 18 2017

NOTE: "FAIR" INDICATES FEW OR NO CLOUDS BELOW 12,000 FEET WITH NO
SIGNIFICANT WEATHER AND/OR OBSTRUCTIONS TO VISIBILITY.

...SOUTH CENTRAL NEBRASKA...

CITY           SKY/WX    TMP DP  RH WIND       PRES   REMARKS
GRAND ISLAND   CLOUDY    62  62 100 S3        29.98S FOG
HASTINGS       FOG       64  62  93 S3        29.99S VSB 1/4
KEARNEY        CLOUDY    61  61 100 SE5       29.99S FOG
ORD            CLOUDY    60  58  92 E3        29.96R FOG
YORK           CLOUDY    64  64 100 S7        29.98R
AURORA         DRIZZLE   63  63 100 S6        29.98R
LEXINGTON      RAIN      62  60  94 S5        29.99R
HOLDREGE       CLOUDY    62  61  97 S6        29.99R FOG
HEBRON         CLOUDY    67  65  94 S9        29.99R

...NEBRASKA PANHANDLE...

CITY           SKY/WX    TMP DP  RH WIND       PRES   REMARKS
CHADRON        SUNNY     50  45  83 CALM      29.94R
ALLIANCE       SUNNY     51  51 100 SW3       29.97R
SCOTTSBLUFF    SUNNY     52  48  86 CALM      29.99S
SIDNEY         PTSUNNY   53  53 100 W5        30.03R FOG

...WESTERN AND NORTH CENTRAL NEBRASKA...

CITY           SKY/WX    TMP DP  RH WIND       PRES   REMARKS
VALENTINE      SUNNY     55  52  89 SW3       29.93R
AINSWORTH      CLOUDY    54  54 100 CALM      29.94S FOG
ONEILL         CLOUDY    59  59 100 S8        29.97R FOG
BROKEN BOW     CLOUDY    61  58  90 SW8       29.98R
IMPERIAL       CLOUDY    57  54  89 W10       30.01R
NORTH PLATTE   CLOUDY    60  57  89 SW7       29.98S
MCCOOK         CLOUDY    60  60 100 CALM      29.99R FOG

...EASTERN NEBRASKA...

CITY           SKY/WX    TMP DP  RH WIND       PRES   REMARKS
NORFOLK        CLOUDY    61  61 100 S12       29.96S
SO SIOUX CITY  CLOUDY    63  63 100 S9        29.95F
TEKAMAH        RAIN      64  62  93 SE9G21    29.94F FOG
COLUMBUS       CLOUDY    64  62  93 SE5       29.97F
ALBION         CLOUDY    61  60  97 CALM      29.98S FOG
OMAHA EPPLEY   LGT RAIN  66  62  87 SE3       30.01F FOG
OFFUTT AFB     LGT RAIN  64  63  94 CALM      30.01S
MILLARD        RAIN      66  65  96 SE7       30.00F
LINCOLN        CLOUDY    66  65  96 S10       29.96F
NEBRASKA CITY  LGT RAIN  65  65 100 SE7       30.01R
BEATRICE       CLOUDY    67  65  96 S6        29.97F
FALLS CITY     CLOUDY    67  65  93 S8        30.00F

...NORTHERN KANSAS...

CITY           SKY/WX    TMP DP  RH WIND       PRES   REMARKS
GOODLAND       MOSUNNY   56  56 100 S6        30.00F FOG
HILL CITY      FOG       63  63 100 S3        29.99F VSB 1/4
NORTON         CLOUDY    61  57  88 S3        29.98S FOG
PHILLIPSBURG   FOG       64  64 100 SE5       29.98F VSB 1/2
SMITH CENTER   CLOUDY    64  64 100 SE12      29.97F FOG
HAYS           PTSUNNY   66  65  96 SW3       29.98S FOG
RUSSELL        MOSUNNY   68  65  90 S8        29.95F
CONCORDIA      CLOUDY    66  66 100 S9        29.98S FOG
SALINA         CLOUDY    69  66  90 SE12      29.97F
TOPEKA         CLOUDY    67  67 100 SE8       30.00S



USA.gov is the U.S. government's official web portal to all federal, state and local government web resources and services.